[[{"header":{"parameterUnit":"m.s-1","parameterCategory":1,"la1":30.2991,"la2":30.254,"lo1":-89.0895,"lo2":-89.0444,"dy":0.0017,"dx":0.0017,"nx":28,"ny":28,"refTime":"2025-06-08T09:00:00:Z","depth":0,"parameterNumber":2,"parameterNumberName":"U-component_of_WINDS"},"data":[0,0,0,0,0,0,0,0,0,0,0,0,0,0,0,0,0,0,0,0,0,0,0,0,0,0,0,0,0,0,0,0,0,0,0,0,0,0,0,0,0,0,0,0,0,0,0,0,0,0,0,0,0,0,0,0,0,0,4.6424,4.6425,0,4.6544,4.6546,4.6547,4.6463,4.6459,4.6455,4.6451,4.6579,4.6585,4.6592,0,0,0,0,0,0,0,0,0,0,0,0,0,4.6121,4.6127,4.6423,4.6425,4.6426,4.6544,4.6546,4.6548,4.6463,4.6459,4.6454,4.645,4.6576,4.6585,4.6593,0,0,0,0,0,0,0,0,0,0,0,0,0,4.6249,4.6129,4.6423,4.6399,4.6398,4.6544,4.6546,4.6548,4.6464,4.6459,4.6453,4.6448,4.6574,4.6584,4.6594,4.6772,0,0,4.6626,4.663,0,0,0,0,0,0,0,0,4.6242,4.626,4.6401,4.6401,4.64,4.6483,4.6486,4.6623,4.6466,4.6439,4.6451,4.6445,4.6552,4.6563,4.6599,4.6778,4.6784,4.6627,4.6633,4.6637,4.664,0,0,0,0,0,0,0,4.6233,4.6254,4.6471,4.6403,4.6402,4.6382,4.6394,4.6512,4.6526,4.6441,4.6435,4.645,4.655,4.6589,4.6601,4.6785,4.6626,4.6636,4.6642,4.6646,4.7115,4.7121,0,0,0,0,0,0,4.6226,4.6247,4.6467,4.6475,4.6305,4.6392,4.6405,4.6462,4.6524,4.6528,4.6455,4.6446,4.6574,4.6589,4.6605,4.6816,4.6637,4.6647,4.6653,4.7109,4.7117,4.7123,0,0,0,0,0,0,4.622,4.6246,4.6463,4.636,4.6386,4.6403,4.6468,4.6467,4.6506,4.6535,4.6537,4.6492,4.657,4.6591,4.6731,4.6819,4.6652,4.6661,4.7102,4.7111,4.712,4.7241,0,0,0,0,0,0,4.6211,4.6245,4.6312,4.6362,4.6391,4.6586,4.6473,4.6474,4.6523,4.6513,4.657,4.6574,4.6567,4.6716,4.6741,4.6831,4.6669,4.7094,4.7106,4.7117,4.7229,4.7253,4.7274,0,0,0,0,0,4.6201,4.6342,4.6316,4.6343,4.6476,4.6591,4.6608,4.6596,4.6531,4.6599,4.6618,4.6572,4.6806,4.6731,4.6759,4.6853,4.7088,4.7103,4.7116,4.7219,4.7248,4.7273,0,0,0,0,0,0,4.6304,4.6348,4.632,4.6481,4.6533,4.6576,4.6662,4.6628,4.67,4.6687,4.667,4.6684,4.683,4.6856,4.6771,4.7028,4.6937,4.6957,4.7005,4.7033,4.7055,4.7046,4.6678,0,0,0,0,0,4.6345,4.6434,4.6469,4.6608,4.6635,4.6645,4.6694,4.668,4.6733,4.6755,4.6784,4.6838,4.6923,4.698,4.706,4.7232,4.7243,4.7311,4.7333,4.7352,4.7369,4.746,4.749,4.7169,4.7169,4.7169,0,0,4.6432,4.6467,4.6525,4.663,4.6668,4.676,4.6663,4.6766,4.6834,4.6771,4.6904,4.6928,4.6987,4.7143,4.7213,4.7169,4.746,4.737,4.7384,4.7391,4.7478,4.7508,4.7535,4.7179,4.7177,4.7176,0,0,4.6637,4.6673,4.6792,4.6832,4.689,4.6896,4.6924,4.6973,4.6986,4.7119,4.7073,4.7155,4.7302,4.7346,4.7387,4.7608,4.7568,4.7635,4.7751,4.784,4.7866,4.7888,4.7965,4.7993,4.7652,4.7653,4.7653,0,4.6737,4.6874,4.6858,4.6963,4.701,4.6956,4.7076,4.7116,4.7199,4.7233,4.7181,4.7364,4.7401,4.7565,4.7619,4.7655,4.7687,4.7627,4.7863,4.7885,4.7906,4.7979,4.8008,4.766,4.7659,4.7658,4.7658,0,4.6993,4.7089,4.7178,4.7258,4.7315,4.7428,4.7428,4.7489,4.747,4.7481,4.7617,4.7658,4.7745,4.7783,4.7767,4.7946,4.7916,4.7865,4.7773,4.7944,4.8013,4.8041,4.7671,4.7668,4.7666,4.7664,0,0,4.7266,4.7334,4.7367,4.7401,4.7462,4.7536,4.7646,4.7729,4.7781,4.784,4.7931,4.8057,4.8009,4.8056,4.8044,4.8123,4.8293,4.8062,4.8063,4.8101,4.8491,4.8528,4.856,4.8267,4.8273,4.8277,4.8485,0,4.7472,4.7662,4.765,4.7829,4.7917,4.7866,4.7962,4.801,4.8023,4.81,4.8114,4.8203,4.8134,4.8162,4.8237,4.8256,4.837,4.8241,4.8352,4.8356,4.8337,4.8596,4.8636,4.883,4.8512,4.8516,4.852,0,4.7738,4.7804,4.7991,4.8037,4.8073,4.816,4.8234,4.8309,4.8362,4.8366,4.8418,4.8393,4.8504,4.8411,4.8563,4.8475,4.852,4.8537,4.8544,4.8552,4.8447,4.8611,4.8892,4.8921,4.8562,4.8559,4.8556,0,4.7915,4.8051,4.818,4.8212,4.827,4.8331,4.8358,4.8405,4.8456,4.8522,4.8554,4.8634,4.8677,4.8739,4.8735,4.8668,4.889,4.8797,4.8896,4.8896,4.8944,4.894,4.9235,4.8976,4.8975,4.8975,4.8974,0,4.8145,4.8262,4.826,4.834,4.8468,4.8454,4.8582,4.8603,4.8645,4.8727,4.869,4.8768,4.876,4.884,4.8838,4.8964,4.8984,4.899,4.8988,4.8993,4.8992,4.9021,4.9006,4.8983,4.8981,4.8979,4.8978,0,4.8364,4.8369,4.8506,4.8548,4.8562,4.8655,4.8691,4.8767,4.8776,4.8881,4.8905,4.892,4.9012,4.9015,4.912,4.9119,4.9272,4.9256,4.9254,4.925,4.9348,4.9338,4.967,4.9712,4.9428,4.943,4.9433,0,4.851,4.8598,4.865,4.8702,4.8732,4.8817,4.8867,4.8857,4.8912,4.8978,4.9046,4.9133,4.9202,4.935,4.9371,4.9452,4.9436,4.9547,4.9448,4.9449,4.9435,4.9429,4.9438,4.9566,4.9569,4.9571,4.9574,0,4.8768,4.8765,4.8839,4.8915,4.8976,4.9035,4.909,4.9135,4.9131,4.9195,4.9287,4.934,4.9447,4.9534,4.9612,4.964,4.9607,4.9605,4.9631,4.9636,4.963,4.9633,4.9304,4.9597,4.9594,4.9593,4.9592,4.9591,4.8953,4.9028,4.9076,4.916,4.92,4.9251,4.9323,4.9342,4.9418,4.9502,4.9492,4.9595,4.9645,4.9745,4.978,4.986,4.9822,4.9862,4.9871,4.9881,4.989,4.9619,4.9875,4.9874,4.9873,4.9873,4.9872,0,4.9207,4.9235,4.9312,4.9389,4.9455,4.9417,4.9476,4.9533,4.9623,4.9672,4.9741,4.9846,4.993,4.9958,5.0039,5.0098,5.0084,5.0119,5.0114,5.0121,4.9921,4.9888,5.0129,5.0129,5.0129,5.0129,5.0128,5.0128,4.9347,4.9471,4.9474,4.9618,4.9645,4.9744,4.978,4.9828,4.9866,4.9985,5.0054,5.0071,5.0112,5.0196,5.0271,5.0277,5.0308,5.0349,5.0349,5.0161,5.0135,5.0111,5.008,5.0357,5.0357,5.0542,5.0544,5.0545]},{"header":{"parameterUnit":"m.s-1","parameterCategory":1,"la1":30.2991,"la2":30.254,"lo1":-89.0895,"lo2":-89.0444,"dy":0.0017,"dx":0.0017,"nx":28,"ny":28,"refTime":"2025-06-08T09:00:00:Z","depth":0,"parameterNumber":3,"parameterNumberName":"V-component_of_WINDS"},"data":[0,0,0,0,0,0,0,0,0,0,0,0,0,0,0,0,0,0,0,0,0,0,0,0,0,0,0,0,0,0,0,0,0,0,0,0,0,0,0,0,0,0,0,0,0,0,0,0,0,0,0,0,0,0,0,0,0,0,5.2638,5.264,0,5.2798,5.28,5.2802,5.2791,5.2789,5.2787,5.2784,5.2944,5.2951,5.2957,0,0,0,0,0,0,0,0,0,0,0,0,0,5.2319,5.2324,5.2638,5.264,5.2642,5.2798,5.28,5.2802,5.2792,5.2789,5.2786,5.2783,5.2942,5.295,5.2957,0,0,0,0,0,0,0,0,0,0,0,0,0,5.2466,5.2326,5.2638,5.2656,5.2659,5.2797,5.28,5.2803,5.2792,5.2789,5.2785,5.2782,5.294,5.2949,5.2959,5.3088,0,0,5.2988,5.2992,0,0,0,0,0,0,0,0,5.2457,5.2477,5.2651,5.2655,5.2658,5.2771,5.2746,5.2898,5.2793,5.2741,5.2784,5.278,5.2889,5.2903,5.294,5.3096,5.3103,5.2989,5.2995,5.2999,5.3002,0,0,0,0,0,0,0,5.2447,5.247,5.2701,5.2653,5.2658,5.2654,5.2671,5.2775,5.2833,5.2746,5.2745,5.2765,5.2891,5.2931,5.2944,5.3105,5.2989,5.2997,5.3003,5.3007,5.3372,5.3376,0,0,0,0,0,0,5.2434,5.2462,5.2696,5.2706,5.2547,5.2663,5.2682,5.2738,5.2832,5.2843,5.2767,5.2764,5.2916,5.2933,5.295,5.3106,5.2999,5.3008,5.3013,5.3368,5.3373,5.3377,0,0,0,0,0,0,5.2427,5.2455,5.269,5.2584,5.2614,5.2672,5.2736,5.2743,5.2784,5.2848,5.2858,5.2799,5.2914,5.2936,5.3054,5.3112,5.3012,5.3021,5.3364,5.337,5.3375,5.3421,0,0,0,0,0,0,5.2418,5.2452,5.2503,5.2585,5.2619,5.2793,5.2739,5.2749,5.2801,5.2798,5.288,5.289,5.2913,5.3039,5.3063,5.3123,5.3029,5.3359,5.3366,5.3373,5.3415,5.3428,5.3439,0,0,0,0,0,5.2406,5.251,5.2506,5.2534,5.2685,5.2796,5.2815,5.2841,5.2806,5.2857,5.2898,5.2888,5.3102,5.3051,5.3078,5.3142,5.3355,5.3364,5.3373,5.3409,5.3425,5.3439,0,0,0,0,0,0,5.2432,5.2521,5.2518,5.2651,5.2716,5.2794,5.2859,5.2857,5.2933,5.2926,5.2953,5.2972,5.3089,5.3127,5.307,5.3271,5.3224,5.3238,5.3242,5.3258,5.327,5.3257,5.3037,0,0,0,0,0,5.2453,5.2538,5.261,5.272,5.2753,5.2801,5.285,5.2864,5.2932,5.2959,5.3009,5.3074,5.3156,5.3209,5.3288,5.342,5.3437,5.3477,5.3489,5.3499,5.3511,5.3581,5.3599,5.3406,5.3406,5.3406,0,0,5.2498,5.2557,5.2608,5.2727,5.2779,5.2864,5.2824,5.2916,5.2979,5.2973,5.3087,5.3125,5.32,5.3325,5.3382,5.336,5.3568,5.351,5.3517,5.3524,5.3592,5.361,5.3627,5.3412,5.3411,5.341,0,0,5.2622,5.2676,5.2773,5.2826,5.2906,5.2937,5.296,5.3038,5.3064,5.3179,5.3176,5.325,5.3391,5.3443,5.3488,5.3631,5.3624,5.3656,5.3719,5.3788,5.3803,5.3817,5.3866,5.3883,5.3668,5.3668,5.3668,0,5.2667,5.2797,5.2823,5.2916,5.2967,5.2967,5.3064,5.3114,5.3214,5.3249,5.3223,5.3399,5.3449,5.3585,5.362,5.3657,5.3683,5.3646,5.3799,5.3813,5.3826,5.3873,5.3892,5.3671,5.3671,5.3671,5.367,0,5.2847,5.2937,5.3005,5.3104,5.3163,5.3257,5.3296,5.3352,5.3361,5.3393,5.3509,5.3569,5.3659,5.3693,5.3702,5.383,5.3814,5.3793,5.3746,5.3847,5.3892,5.391,5.3676,5.3675,5.3674,5.3673,0,0,5.2993,5.3104,5.3128,5.3172,5.3259,5.3328,5.3421,5.3511,5.3557,5.3627,5.3704,5.3823,5.3804,5.3855,5.387,5.393,5.4037,5.3902,5.3904,5.3924,5.418,5.4193,5.4214,5.4033,5.4037,5.404,5.4173,0,5.3125,5.3292,5.3318,5.3464,5.3546,5.3546,5.3626,5.3688,5.372,5.3793,5.3829,5.3912,5.3882,5.3912,5.3972,5.4011,5.4088,5.4002,5.4103,5.4107,5.4084,5.4238,5.4253,5.4376,5.419,5.4193,5.4196,0,5.3301,5.3376,5.353,5.3605,5.364,5.3713,5.3796,5.3866,5.3935,5.3954,5.4011,5.4018,5.4112,5.4061,5.4191,5.4132,5.4174,5.42,5.4205,5.4214,5.4156,5.425,5.4416,5.4434,5.4224,5.4221,5.4219,0,5.339,5.3528,5.3639,5.3676,5.3766,5.3817,5.3857,5.3922,5.3973,5.4045,5.4078,5.416,5.4204,5.4266,5.4294,5.4255,5.4421,5.4373,5.4438,5.4438,5.4473,5.447,5.4647,5.4503,5.4502,5.4502,5.4501,0,5.3534,5.3628,5.3679,5.3747,5.3851,5.3879,5.3981,5.4019,5.4077,5.4151,5.4155,5.4224,5.4257,5.433,5.4353,5.4455,5.4476,5.4492,5.4497,5.4491,5.4489,5.4519,5.451,5.4507,5.4506,5.4505,5.4504,0,5.3649,5.3688,5.3808,5.3883,5.3904,5.3978,5.4042,5.4106,5.4138,5.4231,5.4254,5.4304,5.439,5.4424,5.4529,5.4544,5.4662,5.466,5.4639,5.464,5.4702,5.4695,5.4904,5.4931,5.477,5.4772,5.4773,0,5.3738,5.3811,5.3894,5.3944,5.3985,5.4066,5.4119,5.4148,5.4202,5.4285,5.4339,5.4425,5.4495,5.4632,5.4677,5.4756,5.4756,5.4823,5.4768,5.4759,5.4755,5.475,5.4756,5.4833,5.4835,5.4836,5.4837,0,5.3891,5.3906,5.3982,5.4065,5.4128,5.4194,5.4258,5.4298,5.4338,5.4398,5.4486,5.4541,5.4648,5.4733,5.4815,5.4853,5.4851,5.4855,5.4873,5.4868,5.4852,5.4859,5.4665,5.4849,5.4848,5.4847,5.4847,5.4846,5.3995,5.4058,5.4127,5.4211,5.4263,5.4322,5.4386,5.4426,5.4501,5.4591,5.4604,5.4698,5.4763,5.4873,5.4915,5.4988,5.497,5.4998,5.5005,5.5011,5.5014,5.4841,5.5003,5.5003,5.5002,5.5002,5.5002,0,5.4146,5.419,5.4267,5.4357,5.4423,5.4417,5.4487,5.4542,5.4625,5.4687,5.4756,5.4856,5.4938,5.4989,5.5071,5.5119,5.512,5.5139,5.5135,5.5144,5.5026,5.5001,5.5137,5.5137,5.5137,5.5137,5.5137,5.5137,5.4233,5.4339,5.4362,5.4494,5.4537,5.463,5.4671,5.4725,5.4774,5.4886,5.4955,5.4988,5.5044,5.513,5.5204,5.5217,5.5246,5.5266,5.5277,5.5166,5.5152,5.5139,5.5115,5.5273,5.5273,5.5388,5.5389,5.539]}]]